N061SB KMOD-KLMT

Flight info

Callsign N061SB
Flight time 1h 27m
Altitude 26000
Route LIN J189 LMT
Aircraft BE60/L-SDFGRY/C

Departure

Time 2026-05-05 04:07
Airport Modesto City Co-Harry Sham Field (KMOD)

Arrival

Time 2026-05-05 05:34
Airport Crater Lake-Klamath Regional Airport (KLMT)
Time Latitude Longitude Altitude Speed Heading
2026-05-05 03:34 37.62886 -120.95626 96 ft 0 kts 25°
2026-05-05 04:02 37.62894 -120.95609 96 ft 12 kts 88°
2026-05-05 04:02 37.62854 -120.95606 95 ft 8 kts 248°
2026-05-05 04:03 37.62837 -120.95651 95 ft 0 kts 212°
2026-05-05 04:03 37.62834 -120.95637 95 ft 8 kts 63°
2026-05-05 04:03 37.62781 -120.95484 94 ft 30 kts 126°
2026-05-05 04:03 37.62661 -120.95273 89 ft 30 kts 123°
2026-05-05 04:04 37.62547 -120.95050 88 ft 31 kts 123°
2026-05-05 04:04 37.62428 -120.94838 91 ft 29 kts 123°
2026-05-05 04:04 37.62312 -120.94623 84 ft 28 kts 123°
2026-05-05 04:04 37.62211 -120.94430 73 ft 21 kts 123°
2026-05-05 04:05 37.62165 -120.94343 79 ft 0 kts 123°
2026-05-05 04:05 37.62123 -120.94299 78 ft 14 kts 186°
2026-05-05 04:06 37.62116 -120.94302 78 ft 0 kts 208°
2026-05-05 04:06 37.62094 -120.94321 74 ft 16 kts 232°
2026-05-05 04:06 37.62197 -120.94579 82 ft 63 kts 304°
2026-05-05 04:06 37.62548 -120.95212 123 ft 107 kts 304°
2026-05-05 04:07 37.62992 -120.96024 408 ft 118 kts 304°
2026-05-05 04:07 37.63566 -120.96766 844 ft 121 kts 327°
2026-05-05 04:07 37.64420 -120.97057 1160 ft 135 kts 358°
2026-05-05 04:07 37.65434 -120.96829 1365 ft 158 kts 13°
2026-05-05 04:08 37.66489 -120.96417 1786 ft 158 kts 15°
2026-05-05 04:08 37.67534 -120.96011 2248 ft 157 kts 14°
2026-05-05 04:08 37.68588 -120.95637 2687 ft 157 kts 11°
2026-05-05 04:08 37.69645 -120.95415 3126 ft 156 kts
2026-05-05 04:09 37.70773 -120.95203 3399 ft 168 kts
2026-05-05 04:09 37.71916 -120.94982 3828 ft 166 kts 359°
2026-05-05 04:09 37.73097 -120.94943 4107 ft 173 kts 351°
2026-05-05 04:09 37.74314 -120.95126 4365 ft 179 kts 342°
2026-05-05 04:10 37.75549 -120.95464 4636 ft 181 kts 337°
2026-05-05 04:10 37.76756 -120.95862 5024 ft 180 kts 333°
2026-05-05 04:10 37.77946 -120.96310 5387 ft 180 kts 328°
2026-05-05 04:10 37.79190 -120.96712 5682 ft 189 kts 333°
2026-05-05 04:11 37.80471 -120.97052 6041 ft 191 kts 333°
2026-05-05 04:11 37.81807 -120.97340 6339 ft 200 kts 336°
2026-05-05 04:11 37.83189 -120.97595 6649 ft 202 kts 336°
2026-05-05 04:11 37.84598 -120.97873 6887 ft 206 kts 335°
2026-05-05 04:12 37.86038 -120.98062 7288 ft 210 kts 343°
2026-05-05 04:12 37.87511 -120.98126 7579 ft 214 kts 342°
2026-05-05 04:12 37.88979 -120.98275 7922 ft 209 kts 338°
2026-05-05 04:12 37.90424 -120.98489 8254 ft 210 kts 338°
2026-05-05 04:13 37.91868 -120.98714 8544 ft 211 kts 337°
2026-05-05 04:13 37.93314 -120.98966 8924 ft 210 kts 337°
2026-05-05 04:13 37.94777 -120.99214 9172 ft 216 kts 338°
2026-05-05 04:13 37.96277 -120.99389 9564 ft 215 kts 342°
2026-05-05 04:14 37.97789 -120.99503 9810 ft 222 kts 343°
2026-05-05 04:14 37.99343 -120.99594 10101 ft 224 kts 343°
2026-05-05 04:14 38.00907 -120.99713 10337 ft 227 kts 342°
2026-05-05 04:14 38.02438 -120.99896 10699 ft 221 kts 339°
2026-05-05 04:15 38.03969 -121.00122 10976 ft 223 kts 339°
2026-05-05 04:15 38.05515 -121.00345 11262 ft 224 kts 340°
2026-05-05 04:15 38.07067 -121.00545 11571 ft 225 kts 340°
2026-05-05 04:15 38.08647 -121.00746 11820 ft 229 kts 340°
2026-05-05 04:16 38.10221 -121.00933 12177 ft 227 kts 341°
2026-05-05 04:16 38.11809 -121.01099 12438 ft 231 kts 342°
2026-05-05 04:16 38.13414 -121.01244 12736 ft 231 kts 342°
2026-05-05 04:16 38.14997 -121.01448 13037 ft 228 kts 339°
2026-05-05 04:17 38.16551 -121.01773 13289 ft 228 kts 334°
2026-05-05 04:17 38.18090 -121.02194 13601 ft 227 kts 335°
2026-05-05 04:17 38.19676 -121.02524 13810 ft 235 kts 339°
2026-05-05 04:17 38.21298 -121.02766 14138 ft 234 kts 341°
2026-05-05 04:18 38.22951 -121.02920 14360 ft 243 kts 345°
2026-05-05 04:18 38.24632 -121.03018 14688 ft 239 kts 343°
2026-05-05 04:18 38.26287 -121.03170 14955 ft 240 kts 342°
2026-05-05 04:18 38.27959 -121.03391 15187 ft 240 kts 339°
2026-05-05 04:19 38.29555 -121.03736 15522 ft 235 kts 336°
2026-05-05 04:19 38.31189 -121.04113 15647 ft 244 kts 338°
2026-05-05 04:19 38.32866 -121.04418 16017 ft 240 kts 340°
2026-05-05 04:19 38.34531 -121.04684 16278 ft 243 kts 339°
2026-05-05 04:20 38.36209 -121.04988 16536 ft 244 kts 339°
2026-05-05 04:20 38.37875 -121.05303 16840 ft 243 kts 338°
2026-05-05 04:20 38.39568 -121.05620 17054 ft 247 kts 339°
2026-05-05 04:20 38.41269 -121.05917 17379 ft 246 kts 340°
2026-05-05 04:21 38.42966 -121.06221 17626 ft 248 kts 340°
2026-05-05 04:21 38.44686 -121.06424 17875 ft 255 kts 345°
2026-05-05 04:21 38.46457 -121.06524 18183 ft 255 kts 346°
2026-05-05 04:21 38.48232 -121.06639 18422 ft 255 kts 342°
2026-05-05 04:22 38.49973 -121.06933 18716 ft 249 kts 336°
2026-05-05 04:22 38.51652 -121.07423 18932 ft 254 kts 339°
2026-05-05 04:22 38.53384 -121.07811 19193 ft 248 kts 332°
2026-05-05 04:22 38.55000 -121.08477 19508 ft 242 kts 326°
2026-05-05 04:23 38.56563 -121.09275 19713 ft 243 kts 324°
2026-05-05 04:23 38.58088 -121.10106 20023 ft 241 kts 323°
2026-05-05 04:23 38.59634 -121.10954 20281 ft 242 kts 323°
2026-05-05 04:23 38.61184 -121.11829 20487 ft 244 kts 322°
2026-05-05 04:24 38.62724 -121.12713 20796 ft 242 kts 322°
2026-05-05 04:24 38.64264 -121.13612 20964 ft 246 kts 322°
2026-05-05 04:24 38.65845 -121.14494 21179 ft 248 kts 324°
2026-05-05 04:25 38.69075 -121.16111 21545 ft 253 kts 326°
2026-05-05 04:25 38.70700 -121.16933 21809 ft 249 kts 325°
2026-05-05 04:25 38.72263 -121.17785 21984 ft 248 kts 322°
2026-05-05 04:25 38.73828 -121.18751 22028 ft 250 kts 320°
2026-05-05 04:26 38.75342 -121.19758 22324 ft 242 kts 319°
2026-05-05 04:26 38.76875 -121.20729 22411 ft 256 kts 331°
2026-05-05 04:26 38.78723 -121.20813 22585 ft 280 kts
2026-05-05 04:26 38.80537 -121.19797 22792 ft 288 kts 26°
2026-05-05 04:27 38.82199 -121.18365 22998 ft 288 kts 31°
2026-05-05 04:27 38.83853 -121.16942 23201 ft 282 kts 24°
2026-05-05 04:27 38.85576 -121.15891 23400 ft 274 kts 12°
2026-05-05 04:27 38.87371 -121.15244 23601 ft 264 kts
2026-05-05 04:28 38.89154 -121.14939 23799 ft 255 kts 353°
2026-05-05 04:28 38.90899 -121.14871 24001 ft 247 kts 347°
2026-05-05 04:28 38.92596 -121.14956 24207 ft 241 kts 343°
2026-05-05 04:28 38.94256 -121.15133 24407 ft 236 kts 341°
2026-05-05 04:29 38.95872 -121.15356 24602 ft 231 kts 340°
2026-05-05 04:29 38.97434 -121.15599 24798 ft 227 kts 339°
2026-05-05 04:29 38.98987 -121.15855 24991 ft 222 kts 338°
2026-05-05 04:29 39.00507 -121.16108 25189 ft 218 kts 338°
2026-05-05 04:30 39.01993 -121.16359 25396 ft 213 kts 337°
2026-05-05 04:30 39.03440 -121.16611 25596 ft 208 kts 336°
2026-05-05 04:30 39.04860 -121.16857 25792 ft 203 kts 336°
2026-05-05 04:30 39.06239 -121.17094 25995 ft 197 kts 336°
2026-05-05 04:31 39.07581 -121.17324 26193 ft 191 kts 335°
2026-05-05 04:31 39.08876 -121.17546 26390 ft 185 kts 335°
2026-05-05 04:31 39.10127 -121.17758 26574 ft 176 kts 334°
2026-05-05 04:31 39.11311 -121.17961 26665 ft 175 kts 333°
2026-05-05 04:32 39.12530 -121.18190 26689 ft 179 kts 333°
2026-05-05 04:32 39.13779 -121.18427 26696 ft 184 kts 334°
2026-05-05 04:32 39.15060 -121.18664 26702 ft 189 kts 335°
2026-05-05 04:32 39.16376 -121.18902 26706 ft 194 kts 335°
2026-05-05 04:33 39.17730 -121.19143 26706 ft 199 kts 336°
2026-05-05 04:33 39.19117 -121.19382 26694 ft 203 kts 336°
2026-05-05 04:33 39.20512 -121.19620 26655 ft 208 kts 337°
2026-05-05 04:33 39.21986 -121.19882 26609 ft 218 kts 338°
2026-05-05 04:34 39.23519 -121.20154 26563 ft 228 kts 338°
2026-05-05 04:34 39.25119 -121.20435 26512 ft 236 kts 339°
2026-05-05 04:34 39.26770 -121.20720 26457 ft 243 kts 339°
2026-05-05 04:34 39.28466 -121.21009 26406 ft 249 kts 340°
2026-05-05 04:35 39.30207 -121.21303 26351 ft 254 kts 340°
2026-05-05 04:35 39.31978 -121.21604 26297 ft 259 kts 340°
2026-05-05 04:35 39.33779 -121.21908 26246 ft 263 kts 341°
2026-05-05 04:35 39.35603 -121.22214 26193 ft 266 kts 341°
2026-05-05 04:36 39.37422 -121.22526 26145 ft 269 kts 341°
2026-05-05 04:36 39.39278 -121.22845 26095 ft 271 kts 341°
2026-05-05 04:36 39.41161 -121.23169 26036 ft 273 kts 341°
2026-05-05 04:36 39.43051 -121.23494 25996 ft 275 kts 341°
2026-05-05 04:37 39.44957 -121.23823 25953 ft 277 kts 341°
2026-05-05 04:37 39.46876 -121.24155 25894 ft 279 kts 341°
2026-05-05 04:37 39.48149 -121.24374 25859 ft 280 kts 341°
2026-05-05 04:37 39.50080 -121.24707 25811 ft 280 kts 341°
2026-05-05 04:38 39.52005 -121.25039 25806 ft 279 kts 341°
2026-05-05 04:38 39.54557 -121.25479 25803 ft 278 kts 341°
2026-05-05 04:38 39.56474 -121.25809 25803 ft 279 kts 341°
2026-05-05 04:38 39.58395 -121.26150 25798 ft 278 kts 341°
2026-05-05 04:39 39.60308 -121.26486 25790 ft 277 kts 341°
2026-05-05 04:39 39.61575 -121.26705 25796 ft 277 kts 341°
2026-05-05 04:39 39.63479 -121.27034 25799 ft 276 kts 341°
2026-05-05 04:39 39.65381 -121.27368 25799 ft 276 kts 341°
2026-05-05 04:40 39.67284 -121.27696 25791 ft 276 kts 341°
2026-05-05 04:40 39.69794 -121.28122 25786 ft 273 kts 341°
2026-05-05 04:40 39.71662 -121.28455 25781 ft 269 kts 341°
2026-05-05 04:40 39.73521 -121.28783 25807 ft 270 kts 341°
2026-05-05 04:41 39.74778 -121.29006 25806 ft 270 kts 341°
2026-05-05 04:41 39.76621 -121.29330 25793 ft 271 kts 341°
2026-05-05 04:41 39.78487 -121.29665 25810 ft 271 kts 341°
2026-05-05 04:41 39.80359 -121.29982 25797 ft 271 kts 341°
2026-05-05 04:42 39.82231 -121.30304 25820 ft 272 kts 341°
2026-05-05 04:42 39.84719 -121.30751 25801 ft 273 kts 340°
2026-05-05 04:42 39.85989 -121.30981 25793 ft 273 kts 341°
2026-05-05 04:42 39.87869 -121.31324 25797 ft 273 kts 340°
2026-05-05 04:43 39.89729 -121.31659 25799 ft 274 kts 341°
2026-05-05 04:43 39.91619 -121.31987 25795 ft 274 kts 341°
2026-05-05 04:43 39.93506 -121.32306 25777 ft 273 kts 341°
2026-05-05 04:43 39.95371 -121.32639 25771 ft 269 kts 340°
2026-05-05 04:44 39.97228 -121.32967 25791 ft 270 kts 341°
2026-05-05 04:44 39.99091 -121.33286 25798 ft 270 kts 341°
2026-05-05 04:44 40.00957 -121.33611 25796 ft 271 kts 340°
2026-05-05 04:44 40.02823 -121.33942 25787 ft 270 kts 340°
2026-05-05 04:45 40.04688 -121.34276 25802 ft 271 kts 340°
2026-05-05 04:45 40.06552 -121.34611 25799 ft 271 kts 341°
2026-05-05 04:45 40.08401 -121.34940 25798 ft 272 kts 341°
2026-05-05 04:45 40.10273 -121.35272 25796 ft 272 kts 341°
2026-05-05 04:46 40.12146 -121.35601 25794 ft 271 kts 341°
2026-05-05 04:46 40.14017 -121.35932 25795 ft 271 kts 341°
2026-05-05 04:46 40.15887 -121.36263 25798 ft 271 kts 341°
2026-05-05 04:46 40.17756 -121.36596 25798 ft 271 kts 341°
2026-05-05 04:47 40.19627 -121.36929 25795 ft 271 kts 341°
2026-05-05 04:47 40.21502 -121.37262 25801 ft 272 kts 341°
2026-05-05 04:47 40.23351 -121.37591 25791 ft 272 kts 341°
2026-05-05 04:47 40.25217 -121.37919 25792 ft 271 kts 341°
2026-05-05 04:48 40.27082 -121.38250 25802 ft 271 kts 341°
2026-05-05 04:48 40.28950 -121.38584 25799 ft 271 kts 341°
2026-05-05 04:48 40.30818 -121.38918 25799 ft 271 kts 340°
2026-05-05 04:48 40.32683 -121.39254 25811 ft 271 kts 341°
2026-05-05 04:49 40.34550 -121.39588 25801 ft 272 kts 341°
2026-05-05 04:49 40.36429 -121.39922 25795 ft 272 kts 341°
2026-05-05 04:49 40.38274 -121.40252 25800 ft 272 kts 341°
2026-05-05 04:49 40.40149 -121.40587 25800 ft 272 kts 341°
2026-05-05 04:50 40.42033 -121.40922 25799 ft 273 kts 341°
2026-05-05 04:50 40.43912 -121.41255 25791 ft 272 kts 341°
2026-05-05 04:50 40.45787 -121.41589 25797 ft 272 kts 341°
2026-05-05 04:50 40.47665 -121.41909 25796 ft 273 kts 343°
2026-05-05 04:51 40.49461 -121.42126 25789 ft 243 kts 342°
2026-05-05 04:51 40.51077 -121.42314 25810 ft 219 kts 343°
2026-05-05 04:51 40.52579 -121.42240 25176 ft 220 kts 14°
2026-05-05 04:51 40.53970 -121.41611 24556 ft 201 kts 25°
2026-05-05 04:52 40.55228 -121.40884 23623 ft 203 kts 27°
2026-05-05 04:52 40.56530 -121.40165 22717 ft 201 kts 22°
2026-05-05 04:52 40.57834 -121.39487 21858 ft 203 kts 31°
2026-05-05 04:52 40.58973 -121.38377 21192 ft 203 kts 54°
2026-05-05 04:53 40.59927 -121.37070 20454 ft 194 kts 57°
2026-05-05 04:53 40.60843 -121.35703 19539 ft 202 kts 59°
2026-05-05 04:53 40.61727 -121.34336 18835 ft 197 kts 62°
2026-05-05 04:53 40.62350 -121.32715 17985 ft 197 kts 99°
2026-05-05 04:54 40.62594 -121.31004 17275 ft 191 kts 91°
2026-05-05 04:54 40.63177 -121.29424 16449 ft 196 kts 60°
2026-05-05 04:54 40.64190 -121.28280 15658 ft 186 kts 29°
2026-05-05 04:54 40.65321 -121.27576 15011 ft 179 kts 30°
2026-05-05 04:55 40.66412 -121.26793 14297 ft 179 kts 30°
2026-05-05 04:55 40.67471 -121.25911 13621 ft 183 kts 47°
2026-05-05 04:55 40.68356 -121.24689 12906 ft 184 kts 53°
2026-05-05 04:55 40.69363 -121.23719 12144 ft 174 kts 21°
2026-05-05 04:56 40.70436 -121.23075 11520 ft 169 kts 23°
2026-05-05 04:56 40.71506 -121.22490 10903 ft 163 kts 20°
2026-05-05 04:56 40.72487 -121.21657 10302 ft 171 kts 46°
2026-05-05 04:56 40.73365 -121.20621 9752 ft 169 kts 52°
2026-05-05 04:57 40.74278 -121.19637 9331 ft 169 kts 33°
2026-05-05 04:57 40.75283 -121.18968 9080 ft 160 kts
2026-05-05 04:57 40.76325 -121.18669 8968 ft 152 kts 360°
2026-05-05 04:57 40.77327 -121.17936 8599 ft 178 kts 39°
2026-05-05 04:58 40.78178 -121.16822 8259 ft 170 kts 45°
2026-05-05 04:58 40.79078 -121.15728 7790 ft 173 kts 35°
2026-05-05 04:58 40.79946 -121.14766 7607 ft 172 kts 40°
2026-05-05 04:58 40.80866 -121.13702 7397 ft 167 kts 31°
2026-05-05 04:59 40.81788 -121.12766 7144 ft 169 kts 35°
2026-05-05 04:59 40.82625 -121.11699 6609 ft 174 kts 48°
2026-05-05 04:59 40.83502 -121.10572 6464 ft 165 kts
2026-05-05 04:59 40.84519 -121.10327 6532 ft 135 kts 326°
2026-05-05 05:00 40.85280 -121.10713 6482 ft 112 kts 304°
2026-05-05 05:00 40.86011 -121.11107 6602 ft 117 kts 315°
2026-05-05 05:00 40.86792 -121.11416 6604 ft 117 kts 314°
2026-05-05 05:00 40.87541 -121.11799 6572 ft 113 kts 307°
2026-05-05 05:01 40.88300 -121.12165 6580 ft 120 kts 318°
2026-05-05 05:01 40.89132 -121.12426 6500 ft 123 kts 318°
2026-05-05 05:01 40.89990 -121.12658 6503 ft 129 kts 324°
2026-05-05 05:01 40.90878 -121.12855 6590 ft 129 kts 326°
2026-05-05 05:02 40.91770 -121.12983 6680 ft 130 kts 328°
2026-05-05 05:02 40.92616 -121.13159 6827 ft 118 kts 322°
2026-05-05 05:02 40.93445 -121.13373 6872 ft 126 kts 323°
2026-05-05 05:02 40.94337 -121.13550 6905 ft 132 kts 326°
2026-05-05 05:03 40.95280 -121.13657 6884 ft 139 kts 334°
2026-05-05 05:03 40.96251 -121.13714 6864 ft 142 kts 333°
2026-05-05 05:03 40.97215 -121.13835 6864 ft 138 kts 328°
2026-05-05 05:03 40.98157 -121.13972 6899 ft 135 kts 327°
2026-05-05 05:04 40.99075 -121.14127 6960 ft 131 kts 327°
2026-05-05 05:04 40.99977 -121.14278 7109 ft 126 kts 326°
2026-05-05 05:04 41.00841 -121.14422 7208 ft 127 kts 325°
2026-05-05 05:04 41.01718 -121.14595 7257 ft 130 kts 327°
2026-05-05 05:05 41.02643 -121.14719 7309 ft 135 kts 330°
2026-05-05 05:05 41.03577 -121.14836 7349 ft 132 kts 328°
2026-05-05 05:05 41.04475 -121.15004 7363 ft 131 kts 324°
2026-05-05 05:05 41.05372 -121.15226 7178 ft 136 kts 322°
2026-05-05 05:06 41.06264 -121.15550 7119 ft 129 kts 315°
2026-05-05 05:06 41.07111 -121.15951 7057 ft 133 kts 317°
2026-05-05 05:06 41.08004 -121.16246 7180 ft 127 kts 320°
2026-05-05 05:06 41.08893 -121.16522 7148 ft 135 kts 323°
2026-05-05 05:07 41.09686 -121.16953 7041 ft 109 kts 290°
2026-05-05 05:07 41.10224 -121.17543 7063 ft 98 kts 295°
2026-05-05 05:07 41.10822 -121.18035 7015 ft 108 kts 304°
2026-05-05 05:07 41.11540 -121.18428 6986 ft 117 kts 316°
2026-05-05 05:08 41.12395 -121.18616 7023 ft 130 kts 330°
2026-05-05 05:08 41.13340 -121.18769 7051 ft 148 kts 331°
2026-05-05 05:08 41.14399 -121.18940 7365 ft 157 kts 333°
2026-05-05 05:08 41.15478 -121.19199 7679 ft 155 kts 327°
2026-05-05 05:09 41.16531 -121.19503 8043 ft 158 kts 327°
2026-05-05 05:09 41.17630 -121.19839 8358 ft 159 kts 327°
2026-05-05 05:09 41.18696 -121.20130 8746 ft 157 kts 328°
2026-05-05 05:09 41.19731 -121.20438 9087 ft 152 kts 324°
2026-05-05 05:10 41.20821 -121.20771 9201 ft 169 kts 329°
2026-05-05 05:10 41.21969 -121.21126 9412 ft 170 kts 327°
2026-05-05 05:10 41.23077 -121.21498 9818 ft 161 kts 324°
2026-05-05 05:10 41.24188 -121.21921 10009 ft 170 kts 327°
2026-05-05 05:11 41.25357 -121.22289 10225 ft 175 kts 329°
2026-05-05 05:11 41.26569 -121.22610 10424 ft 180 kts 329°
2026-05-05 05:11 41.27779 -121.23008 10683 ft 177 kts 327°
2026-05-05 05:11 41.28981 -121.23430 10878 ft 182 kts 327°
2026-05-05 05:12 41.30208 -121.23859 11136 ft 182 kts 328°
2026-05-05 05:12 41.31408 -121.24289 11396 ft 180 kts 326°
2026-05-05 05:12 41.32637 -121.24684 11683 ft 184 kts 331°
2026-05-05 05:12 41.33885 -121.25014 11964 ft 183 kts 329°
2026-05-05 05:13 41.35124 -121.25417 12172 ft 184 kts 327°
2026-05-05 05:13 41.36387 -121.25880 12292 ft 192 kts 328°
2026-05-05 05:13 41.37687 -121.26343 12480 ft 195 kts 329°
2026-05-05 05:13 41.39046 -121.26714 12651 ft 203 kts 334°
2026-05-05 05:14 41.40374 -121.27134 12980 ft 190 kts 328°
2026-05-05 05:14 41.41649 -121.27570 13212 ft 193 kts 328°
2026-05-05 05:14 41.42937 -121.28073 13344 ft 195 kts 325°
2026-05-05 05:14 41.44208 -121.28665 13543 ft 193 kts 322°
2026-05-05 05:15 41.45450 -121.29353 13636 ft 198 kts 320°
2026-05-05 05:15 41.46722 -121.30123 13694 ft 201 kts 316°
2026-05-05 05:15 41.47898 -121.31061 13806 ft 196 kts 309°
2026-05-05 05:15 41.49001 -121.32129 13917 ft 196 kts 309°
2026-05-05 05:16 41.50127 -121.33157 14137 ft 194 kts 310°
2026-05-05 05:16 41.51204 -121.34252 14135 ft 196 kts 305°
2026-05-05 05:16 41.52286 -121.35334 14455 ft 191 kts 311°
2026-05-05 05:16 41.53405 -121.36279 14629 ft 194 kts 312°
2026-05-05 05:17 41.54569 -121.37201 14783 ft 196 kts 314°
2026-05-05 05:17 41.55759 -121.38126 14834 ft 202 kts 313°
2026-05-05 05:17 41.56960 -121.39147 14816 ft 207 kts 312°
2026-05-05 05:17 41.58214 -121.40143 14749 ft 213 kts 317°
2026-05-05 05:18 41.59565 -121.40999 14640 ft 216 kts 321°
2026-05-05 05:18 41.60946 -121.41778 14529 ft 215 kts 322°
2026-05-05 05:18 41.62314 -121.42548 14404 ft 211 kts 322°
2026-05-05 05:18 41.63659 -121.43340 14144 ft 212 kts 319°
2026-05-05 05:19 41.64944 -121.44203 13987 ft 206 kts 316°
2026-05-05 05:19 41.66150 -121.45157 13818 ft 200 kts 311°
2026-05-05 05:19 41.67356 -121.46150 13535 ft 205 kts 313°
2026-05-05 05:19 41.68540 -121.47073 13572 ft 191 kts 311°
2026-05-05 05:20 41.69658 -121.48024 13333 ft 193 kts 310°
2026-05-05 05:20 41.70787 -121.49044 13016 ft 198 kts 309°
2026-05-05 05:20 41.71885 -121.50114 12806 ft 196 kts 311°
2026-05-05 05:20 41.73188 -121.50894 12399 ft 216 kts 334°
2026-05-05 05:21 41.74666 -121.51310 12113 ft 212 kts 332°
2026-05-05 05:21 41.76049 -121.51819 11874 ft 202 kts 328°
2026-05-05 05:21 41.77355 -121.52340 11637 ft 196 kts 325°
2026-05-05 05:21 41.78639 -121.52898 11443 ft 186 kts 323°
2026-05-05 05:22 41.79770 -121.53425 11203 ft 160 kts 319°
2026-05-05 05:22 41.80790 -121.53872 10861 ft 148 kts 322°
2026-05-05 05:22 41.81708 -121.54305 10475 ft 133 kts 312°
2026-05-05 05:22 41.82493 -121.54844 10092 ft 121 kts 304°
2026-05-05 05:23 41.83203 -121.55379 9775 ft 112 kts 302°
2026-05-05 05:23 41.83878 -121.55810 9494 ft 105 kts 309°
2026-05-05 05:23 41.84585 -121.56233 8887 ft 114 kts 300°
2026-05-05 05:23 41.85269 -121.56765 8719 ft 112 kts 307°
2026-05-05 05:24 41.85964 -121.57241 8644 ft 116 kts 308°
2026-05-05 05:24 41.86749 -121.57707 8460 ft 127 kts 314°
2026-05-05 05:24 41.87571 -121.58149 8352 ft 129 kts 315°
2026-05-05 05:24 41.88433 -121.58567 8159 ft 134 kts 318°
2026-05-05 05:25 41.89317 -121.58956 7980 ft 134 kts 322°
2026-05-05 05:25 41.90137 -121.59367 7779 ft 122 kts 311°
2026-05-05 05:25 41.90903 -121.59828 7564 ft 120 kts 310°
2026-05-05 05:25 41.91707 -121.60252 7354 ft 133 kts 322°
2026-05-05 05:26 41.92579 -121.60575 7139 ft 131 kts 319°
2026-05-05 05:26 41.93467 -121.60917 6904 ft 136 kts 324°
2026-05-05 05:26 41.94324 -121.61304 6679 ft 121 kts 307°
2026-05-05 05:26 41.95049 -121.61829 6502 ft 115 kts 306°
2026-05-05 05:27 41.95686 -121.62424 6263 ft 111 kts 300°
2026-05-05 05:27 41.96319 -121.62990 6090 ft 108 kts 293°
2026-05-05 05:27 41.97747 -121.63880 5584 ft 122 kts 311°
2026-05-05 05:28 41.98525 -121.64236 5378 ft 116 kts 310°
2026-05-05 05:28 41.99283 -121.64585 5193 ft 116 kts 314°
2026-05-05 05:28 42.00029 -121.64980 5109 ft 116 kts 317°
2026-05-05 05:28 42.00774 -121.65344 5025 ft 114 kts 321°
2026-05-05 05:29 42.01523 -121.65690 4989 ft 115 kts 321°
2026-05-05 05:29 42.02271 -121.66092 4985 ft 118 kts 320°
2026-05-05 05:29 42.03030 -121.66546 4971 ft 120 kts 316°
2026-05-05 05:29 42.03764 -121.67031 4998 ft 115 kts 320°
2026-05-05 05:30 42.04510 -121.67323 4979 ft 109 kts 324°
2026-05-05 05:30 42.05215 -121.67574 4922 ft 101 kts 316°
2026-05-05 05:30 42.05875 -121.67913 4792 ft 102 kts 316°
2026-05-05 05:30 42.06543 -121.68277 4687 ft 100 kts 328°
2026-05-05 05:31 42.07171 -121.68608 4623 ft 98 kts 320°
2026-05-05 05:31 42.07817 -121.68970 4643 ft 100 kts 317°
2026-05-05 05:31 42.08440 -121.69397 4622 ft 100 kts 319°
2026-05-05 05:31 42.09047 -121.69776 4584 ft 94 kts 318°
2026-05-05 05:32 42.09635 -121.70134 4523 ft 97 kts 323°
2026-05-05 05:32 42.10262 -121.70450 4533 ft 95 kts 324°
2026-05-05 05:32 42.10855 -121.70780 4486 ft 91 kts 321°
2026-05-05 05:32 42.11429 -121.71102 4433 ft 89 kts 323°
2026-05-05 05:33 42.11995 -121.71418 4407 ft 87 kts 327°
2026-05-05 05:33 42.12560 -121.71717 4333 ft 88 kts 321°
2026-05-05 05:33 42.13130 -121.72020 4247 ft 89 kts 322°
2026-05-05 05:33 42.13707 -121.72331 4196 ft 90 kts 321°
2026-05-05 05:34 42.14271 -121.72652 4117 ft 86 kts 326°
2026-05-05 05:34 42.14812 -121.72925 4092 ft 75 kts 335°
2026-05-05 05:34 42.15172 -121.73117 4091 ft 33 kts 341°
2026-05-05 05:34 42.15359 -121.73206 4091 ft 25 kts 339°
2026-05-05 05:35 42.15503 -121.73285 4092 ft 21 kts 336°
2026-05-05 05:35 42.15632 -121.73341 4092 ft 16 kts 344°
2026-05-05 05:35 42.15727 -121.73380 4092 ft 13 kts
2026-05-05 05:35 42.15772 -121.73305 4092 ft 11 kts 87°
2026-05-05 05:36 42.15772 -121.73193 4092 ft 13 kts 90°
2026-05-05 05:36 42.15770 -121.73080 4091 ft 7 kts 88°
2026-05-05 05:36 42.15770 -121.72993 4091 ft 12 kts 88°
2026-05-05 05:36 42.15771 -121.72894 4091 ft 11 kts 91°
2026-05-05 05:37 42.15769 -121.72783 4091 ft 12 kts 89°
2026-05-05 05:37 42.15772 -121.72805 4091 ft 20 kts 269°
2026-05-05 05:37 42.15770 -121.73033 4091 ft 25 kts 270°
2026-05-05 05:37 42.15771 -121.73253 4092 ft 21 kts 270°
2026-05-05 05:38 42.15776 -121.73378 4092 ft 2 kts 276°
2026-05-05 05:38 42.15820 -121.73454 4091 ft 16 kts 291°
2026-05-05 05:38 42.15772 -121.73581 4090 ft 19 kts 271°
2026-05-05 05:38 42.15812 -121.73756 4091 ft 25 kts 329°
2026-05-05 05:39 42.16000 -121.73861 4091 ft 31 kts 337°
2026-05-05 05:39 42.16181 -121.73959 4091 ft 27 kts 339°
2026-05-05 05:39 42.16339 -121.74049 4091 ft 15 kts 326°
2026-05-05 05:39 42.16368 -121.74192 4091 ft 18 kts 279°
2026-05-05 05:40 42.16280 -121.74245 4091 ft 15 kts 208°
2026-05-05 05:40 42.16257 -121.74278 4091 ft 0 kts 271°